| time (UTC) | temp F | wind direction | speed MPH | gust MPH | rain 1hr in | rain 24hr in | rain mn in | humidity % | barometer mb |
| 20260902232604 | 68 | 77 | 2.0 | 6.0 | 0.00 | 0.00 | 0.00 | 76 | 1023.5 |
| 20260902232104 | 68 | 77 | 2.0 | 6.0 | 0.00 | 0.00 | 0.00 | 76 | 1023.5 |
| 20260902231604 | 68 | 77 | 2.0 | 6.0 | 0.00 | 0.00 | 0.00 | 77 | 1023.5 |
| 20260902231103 | 68 | 77 | 2.0 | 6.0 | 0.00 | 0.00 | 0.00 | 78 | 1023.5 |
| 20260902230603 | 68 | 77 | 2.0 | 6.0 | 0.00 | 0.00 | 0.00 | 78 | 1023.5 |
| 20260902230104 | 68 | 77 | 2.0 | 6.0 | 0.00 | 0.00 | 0.00 | 77 | 1023.5 |
| 20260902225604 | 68 | 77 | 2.0 | 6.0 | 0.00 | 0.00 | 0.00 | 77 | 1023.5 |
| 20260902225104 | 68 | 77 | 2.0 | 6.0 | 0.00 | 0.00 | 0.00 | 76 | 1023.5 |
| 20260902224604 | 68 | 77 | 2.0 | 6.0 | 0.00 | 0.00 | 0.00 | 74 | 1023.5 |
| 20260902224104 | 69 | 77 | 2.0 | 6.0 | 0.00 | 0.00 | 0.00 | 74 | 1023.5 |
| 20260902223604 | 69 | 77 | 2.0 | 6.0 | 0.00 | 0.00 | 0.00 | 74 | 1023.5 |
| 20260902222603 | 69 | 77 | 2.0 | 6.0 | 0.00 | 0.00 | 0.00 | 74 | 1023.5 |
| 20260902222104 | 69 | 77 | 2.0 | 6.0 | 0.00 | 0.00 | 0.00 | 74 | 1023.5 |
| 20260902221604 | 69 | 77 | 2.0 | 6.0 | 0.00 | 0.00 | 0.00 | 74 | 1023.5 |
| 20260902221103 | 69 | 77 | 2.0 | 6.0 | 0.00 | 0.00 | 0.00 | 74 | 1023.5 |
| 20260902220604 | 69 | 77 | 2.0 | 6.0 | 0.00 | 0.00 | 0.00 | 75 | 1023.6 |
| 20260902215604 | 70 | 77 | 2.0 | 6.0 | 0.00 | 0.00 | 0.00 | 76 | 1023.6 |
| 20260902215104 | 70 | 77 | 2.0 | 6.0 | 0.00 | 0.00 | 0.00 | 76 | 1023.6 |
| 20260902214104 | 70 | 77 | 2.0 | 6.0 | 0.00 | 0.00 | 0.00 | 68 | 1023.5 |
| 20260902213606 | 70 | 77 | 2.0 | 6.0 | 0.00 | 0.00 | 0.00 | 73 | 1023.3 |
| 20260902212102 | 70 | 77 | 2.0 | 6.0 | 0.00 | 0.00 | 0.00 | 76 | 1023.5 |
| 20260902211603 | 69 | 77 | 2.0 | 6.0 | 0.00 | 0.00 | 0.00 | 76 | 1023.5 |
| 20260902211103 | 69 | 77 | 2.0 | 6.0 | 0.00 | 0.00 | 0.00 | 77 | 1023.6 |
| 20260902210602 | 69 | 77 | 2.0 | 6.0 | 0.00 | 0.00 | 0.00 | 77 | 1023.7 |
| 20260902205603 | 69 | 77 | 2.0 | 6.0 | 0.00 | 0.00 | 0.00 | 78 | 1023.8 |
| 20260902205103 | 69 | 77 | 2.0 | 6.0 | 0.00 | 0.00 | 0.00 | 78 | 1023.8 |
| 20260902204102 | 69 | 77 | 2.0 | 6.0 | 0.00 | 0.00 | 0.00 | 78 | 1024.0 |
| 20260902203602 | 69 | 77 | 2.0 | 6.0 | 0.00 | 0.00 | 0.00 | 78 | 1024.0 |
| 20260902203103 | 69 | 77 | 2.0 | 6.0 | 0.00 | 0.00 | 0.00 | 78 | 1024.0 |
| 20260902201603 | 70 | 77 | 2.0 | 6.0 | 0.00 | 0.00 | 0.00 | 75 | 1024.1 |
| 20260902201102 | 70 | 77 | 2.0 | 6.0 | 0.00 | 0.00 | 0.00 | 73 | 1024.2 |
| 20260902200603 | 70 | 77 | 2.0 | 6.0 | 0.00 | 0.00 | 0.00 | 73 | 1024.2 |
| 20260902195102 | 70 | 77 | 2.0 | 6.0 | 0.00 | 0.00 | 0.00 | 74 | 1024.3 |
| 20260902194603 | 71 | 77 | 2.0 | 6.0 | 0.00 | 0.00 | 0.00 | 74 | 1024.4 |
| 20260902194103 | 71 | 77 | 2.0 | 6.0 | 0.00 | 0.00 | 0.00 | 73 | 1024.5 |
| 20260902193603 | 71 | 77 | 2.0 | 6.0 | 0.00 | 0.00 | 0.00 | 72 | 1024.5 |
| 20260902192602 | 71 | 77 | 2.0 | 6.0 | 0.00 | 0.00 | 0.00 | 69 | 1024.5 |
| 20260902192102 | 71 | 77 | 2.0 | 6.0 | 0.00 | 0.00 | 0.00 | 70 | 1024.6 |
| 20260902191602 | 71 | 77 | 2.0 | 6.0 | 0.00 | 0.00 | 0.00 | 70 | 1024.6 |
| 20260902190602 | 70 | 77 | 2.0 | 6.0 | 0.00 | 0.00 | 0.00 | 73 | 1024.7 |
| 20260902190104 | 70 | 77 | 2.0 | 6.0 | 0.00 | 0.00 | 0.00 | 75 | 1024.8 |
| 20260902185603 | 70 | 77 | 2.0 | 6.0 | 0.00 | 0.00 | 0.00 | 74 | 1024.8 |
| 20260902185102 | 71 | 77 | 2.0 | 6.0 | 0.00 | 0.00 | 0.00 | 74 | 1024.8 |
| 20260902184602 | 70 | 77 | 2.0 | 6.0 | 0.00 | 0.00 | 0.00 | 74 | 1024.8 |
| 20260902184103 | 70 | 77 | 2.0 | 6.0 | 0.00 | 0.00 | 0.00 | 76 | 1024.8 |
| 20260902183603 | 70 | 77 | 2.0 | 6.0 | 0.00 | 0.00 | 0.00 | 77 | 1024.8 |
| 20260902183103 | 70 | 77 | 2.0 | 6.0 | 0.00 | 0.00 | 0.00 | 77 | 1024.8 |
| 20260902182603 | 70 | 77 | 2.0 | 6.0 | 0.00 | 0.00 | 0.00 | 77 | 1024.8 |
| 20260902181603 | 70 | 77 | 2.0 | 6.0 | 0.00 | 0.00 | 0.00 | 79 | 1024.8 |
| 20260902181103 | 70 | 77 | 2.0 | 6.0 | 0.00 | 0.00 | 0.00 | 78 | 1024.8 |
| 20260902175602 | 70 | 77 | 2.0 | 6.0 | 0.00 | 0.00 | 0.00 | 79 | 1024.9 |
| 20260902175103 | 70 | 77 | 2.0 | 6.0 | 0.00 | 0.00 | 0.00 | 77 | 1024.9 |
| 20260902174603 | 70 | 77 | 2.0 | 6.0 | 0.00 | 0.00 | 0.00 | 79 | 1024.9 |
| 20260902174103 | 69 | 77 | 2.0 | 6.0 | 0.00 | 0.00 | 0.00 | 80 | 1024.9 |
| 20260902172602 | 70 | 77 | 2.0 | 6.0 | 0.00 | 0.00 | 0.00 | 80 | 1024.9 |
| 20260902172103 | 70 | 77 | 2.0 | 6.0 | 0.00 | 0.00 | 0.00 | 81 | 1024.9 |
| 20260902171603 | 70 | 77 | 2.0 | 6.0 | 0.00 | 0.00 | 0.00 | 82 | 1024.9 |
| 20260902171103 | 70 | 77 | 2.0 | 6.0 | 0.00 | 0.00 | 0.00 | 80 | 1024.9 |
| 20260902165102 | 73 | 77 | 2.0 | 6.0 | 0.00 | 0.00 | 0.00 | 62 | 1024.9 |
| 20260902164603 | 73 | 77 | 2.0 | 6.0 | 0.00 | 0.00 | 0.00 | 61 | 1024.8 |
| 20260902164102 | 73 | 77 | 2.0 | 6.0 | 0.00 | 0.00 | 0.00 | 63 | 1024.8 |
| 20260902163603 | 73 | 77 | 2.0 | 6.0 | 0.00 | 0.00 | 0.00 | 63 | 1024.8 |
| 20260902163103 | 73 | 77 | 2.0 | 6.0 | 0.00 | 0.00 | 0.00 | 63 | 1024.7 |
| 20260902162602 | 72 | 77 | 2.0 | 6.0 | 0.00 | 0.00 | 0.00 | 64 | 1024.7 |
| 20260902162102 | 72 | 77 | 2.0 | 6.0 | 0.00 | 0.00 | 0.00 | 66 | 1024.7 |
| 20260902161603 | 71 | 77 | 2.0 | 6.0 | 0.00 | 0.00 | 0.00 | 66 | 1024.7 |
| 20260902161103 | 71 | 77 | 2.0 | 6.0 | 0.00 | 0.00 | 0.00 | 66 | 1024.7 |
| 20260902160602 | 71 | 77 | 2.0 | 6.0 | 0.00 | 0.00 | 0.00 | 66 | 1024.8 |
| 20260902160103 | 71 | 77 | 2.0 | 6.0 | 0.00 | 0.00 | 0.00 | 66 | 1024.8 |
| 20260902155603 | 71 | 77 | 2.0 | 6.0 | 0.00 | 0.00 | 0.00 | 66 | 1024.8 |
| 20260902155102 | 72 | 77 | 2.0 | 6.0 | 0.00 | 0.00 | 0.00 | 65 | 1024.8 |
| 20260902154603 | 72 | 77 | 2.0 | 6.0 | 0.00 | 0.00 | 0.00 | 65 | 1024.7 |
| 20260902154103 | 72 | 77 | 2.0 | 6.0 | 0.00 | 0.00 | 0.00 | 66 | 1024.8 |
| 20260902153603 | 72 | 77 | 2.0 | 6.0 | 0.00 | 0.00 | 0.00 | 66 | 1024.7 |
| 20260902153103 | 71 | 77 | 2.0 | 6.0 | 0.00 | 0.00 | 0.00 | 66 | 1024.7 |
| 20260902152602 | 71 | 77 | 2.0 | 6.0 | 0.00 | 0.00 | 0.00 | 67 | 1024.7 |
| 20260902152102 | 70 | 77 | 2.0 | 6.0 | 0.00 | 0.00 | 0.00 | 68 | 1024.7 |
| 20260902151103 | 69 | 77 | 2.0 | 6.0 | 0.00 | 0.00 | 0.00 | 70 | 1024.7 |
| 20260902150603 | 69 | 77 | 2.0 | 6.0 | 0.00 | 0.00 | 0.00 | 71 | 1024.7 |
| 20260902145603 | 67 | 77 | 2.0 | 6.0 | 0.00 | 0.00 | 0.00 | 74 | 1024.6 |
| 20260902145102 | 67 | 77 | 2.0 | 6.0 | 0.00 | 0.00 | 0.00 | 76 | 1024.7 |
| 20260902144603 | 66 | 77 | 2.0 | 6.0 | 0.00 | 0.00 | 0.00 | 77 | 1024.8 |
| 20260902144102 | 66 | 77 | 2.0 | 6.0 | 0.00 | 0.00 | 0.00 | 76 | 1024.8 |
| 20260902143602 | 66 | 77 | 2.0 | 6.0 | 0.00 | 0.00 | 0.00 | 77 | 1024.8 |
| 20260902142605 | 66 | 77 | 2.0 | 6.0 | 0.00 | 0.00 | 0.00 | 78 | 1024.7 |
| 20260902142103 | 65 | 77 | 2.0 | 6.0 | 0.00 | 0.00 | 0.00 | 79 | 1024.7 |
| 20260902141102 | 65 | 77 | 2.0 | 6.0 | 0.00 | 0.00 | 0.00 | 80 | 1024.7 |
| 20260902134602 | 63 | 77 | 2.0 | 6.0 | 0.00 | 0.00 | 0.00 | 85 | 1024.8 |
| 20260902134102 | 62 | 77 | 2.0 | 6.0 | 0.00 | 0.00 | 0.00 | 85 | 1024.8 |
| 20260902133102 | 61 | 77 | 2.0 | 6.0 | 0.00 | 0.00 | 0.00 | 88 | 1024.8 |
| 20260902132603 | 61 | 77 | 2.0 | 6.0 | 0.00 | 0.00 | 0.00 | 89 | 1024.8 |
| 20260902132103 | 60 | 77 | 2.0 | 6.0 | 0.00 | 0.00 | 0.00 | 90 | 1024.8 |
| 20260902131603 | 60 | 77 | 2.0 | 6.0 | 0.00 | 0.00 | 0.00 | 91 | 1024.8 |
| 20260902131102 | 60 | 77 | 2.0 | 6.0 | 0.00 | 0.00 | 0.00 | 91 | 1024.9 |
| 20260902130603 | 60 | 77 | 2.0 | 6.0 | 0.00 | 0.00 | 0.00 | 92 | 1024.9 |
| 20260902125603 | 60 | 77 | 2.0 | 6.0 | 0.00 | 0.00 | 0.00 | 92 | 1024.9 |
| 20260902125102 | 60 | 77 | 2.0 | 6.0 | 0.00 | 0.00 | 0.00 | 92 | 1024.8 |
| 20260902124603 | 60 | 77 | 2.0 | 6.0 | 0.00 | 0.00 | 0.00 | 93 | 1024.8 |
| 20260902124102 | 60 | 77 | 2.0 | 6.0 | 0.00 | 0.00 | 0.00 | 93 | 1024.9 |
| 20260902123603 | 60 | 77 | 2.0 | 6.0 | 0.00 | 0.00 | 0.00 | 93 | 1024.9 |
| 20260902123103 | 60 | 77 | 2.0 | 6.0 | 0.00 | 0.00 | 0.00 | 93 | 1025.0 |
| 20260902122603 | 60 | 77 | 2.0 | 6.0 | 0.00 | 0.00 | 0.00 | 93 | 1025.0 |
| 20260902121603 | 60 | 77 | 2.0 | 6.0 | 0.00 | 0.00 | 0.00 | 93 | 1025.0 |
| 20260902121103 | 60 | 77 | 2.0 | 6.0 | 0.00 | 0.00 | 0.00 | 93 | 1025.0 |
| 20260902120603 | 60 | 77 | 2.0 | 6.0 | 0.00 | 0.00 | 0.00 | 92 | 1025.0 |
| 20260902115603 | 60 | 77 | 2.0 | 6.0 | 0.00 | 0.00 | 0.00 | 92 | 1025.0 |
| 20260902115103 | 61 | 77 | 2.0 | 6.0 | 0.00 | 0.00 | 0.00 | 91 | 1025.0 |
| 20260902114103 | 61 | 77 | 2.0 | 6.0 | 0.00 | 0.00 | 0.00 | 91 | 1025.0 |
| 20260902113602 | 61 | 77 | 2.0 | 6.0 | 0.00 | 0.00 | 0.00 | 91 | 1025.0 |
| 20260902113103 | 61 | 77 | 2.0 | 6.0 | 0.00 | 0.00 | 0.00 | 91 | 1025.1 |
| 20260902112603 | 61 | 77 | 2.0 | 6.0 | 0.00 | 0.00 | 0.00 | 91 | 1025.0 |
| 20260902112102 | 61 | 77 | 2.0 | 6.0 | 0.00 | 0.00 | 0.00 | 90 | 1025.1 |
| 20260902111603 | 61 | 77 | 2.0 | 6.0 | 0.00 | 0.00 | 0.00 | 89 | 1025.1 |
| 20260902111102 | 61 | 77 | 2.0 | 6.0 | 0.00 | 0.00 | 0.00 | 88 | 1025.0 |
| 20260902110602 | 61 | 77 | 2.0 | 6.0 | 0.00 | 0.00 | 0.00 | 88 | 1025.0 |
| 20260902105602 | 61 | 77 | 2.0 | 6.0 | 0.00 | 0.00 | 0.00 | 87 | 1024.8 |
| 20260902105103 | 62 | 77 | 2.0 | 6.0 | 0.00 | 0.00 | 0.00 | 86 | 1024.7 |
| 20260902104103 | 62 | 77 | 2.0 | 6.0 | 0.00 | 0.00 | 0.00 | 86 | 1024.8 |
| 20260902103103 | 62 | 77 | 2.0 | 6.0 | 0.00 | 0.00 | 0.00 | 86 | 1024.8 |
| 20260902102602 | 62 | 77 | 2.0 | 6.0 | 0.00 | 0.00 | 0.00 | 86 | 1024.8 |
| 20260902101602 | 62 | 77 | 2.0 | 6.0 | 0.00 | 0.00 | 0.00 | 86 | 1024.7 |
| 20260902101103 | 62 | 77 | 2.0 | 6.0 | 0.00 | 0.00 | 0.00 | 85 | 1024.7 |
| 20260902100602 | 62 | 77 | 2.0 | 6.0 | 0.00 | 0.00 | 0.00 | 84 | 1024.7 |
| 20260902095603 | 63 | 77 | 2.0 | 6.0 | 0.00 | 0.00 | 0.00 | 82 | 1024.7 |
| 20260902095103 | 63 | 77 | 2.0 | 6.0 | 0.00 | 0.00 | 0.00 | 80 | 1024.7 |
| 20260902094103 | 63 | 77 | 2.0 | 6.0 | 0.00 | 0.00 | 0.00 | 81 | 1024.7 |
| 20260902093603 | 63 | 77 | 2.0 | 6.0 | 0.00 | 0.00 | 0.00 | 81 | 1024.7 |
| 20260902093103 | 63 | 77 | 2.0 | 6.0 | 0.00 | 0.00 | 0.00 | 81 | 1024.7 |
| 20260902091602 | 64 | 77 | 2.0 | 6.0 | 0.00 | 0.00 | 0.00 | 79 | 1024.8 |
| 20260902091103 | 64 | 77 | 2.0 | 6.0 | 0.00 | 0.00 | 0.00 | 78 | 1024.8 |
| 20260902090602 | 64 | 77 | 2.0 | 6.0 | 0.00 | 0.00 | 0.00 | 78 | 1024.9 |
| 20260902085603 | 64 | 77 | 2.0 | 6.0 | 0.00 | 0.00 | 0.00 | 78 | 1024.9 |
| 20260902085102 | 64 | 77 | 2.0 | 6.0 | 0.00 | 0.00 | 0.00 | 79 | 1024.9 |
| 20260902084603 | 64 | 77 | 2.0 | 6.0 | 0.00 | 0.00 | 0.00 | 79 | 1024.9 |
| 20260902084103 | 64 | 77 | 2.0 | 6.0 | 0.00 | 0.00 | 0.00 | 79 | 1024.9 |
| 20260902083602 | 64 | 77 | 2.0 | 6.0 | 0.00 | 0.00 | 0.00 | 79 | 1024.9 |
| 20260902083103 | 64 | 77 | 2.0 | 6.0 | 0.00 | 0.00 | 0.00 | 79 | 1024.9 |
| 20260902082603 | 64 | 77 | 2.0 | 6.0 | 0.00 | 0.00 | 0.00 | 78 | 1024.9 |
| 20260902082102 | 64 | 77 | 2.0 | 6.0 | 0.00 | 0.00 | 0.00 | 78 | 1024.9 |
| 20260902081603 | 64 | 77 | 2.0 | 6.0 | 0.00 | 0.00 | 0.00 | 78 | 1024.9 |
| 20260902081103 | 64 | 77 | 2.0 | 6.0 | 0.00 | 0.00 | 0.00 | 78 | 1024.9 |
| 20260902075603 | 65 | 77 | 2.0 | 6.0 | 0.00 | 0.00 | 0.00 | 78 | 1024.9 |
| 20260902075103 | 65 | 77 | 2.0 | 6.0 | 0.00 | 0.00 | 0.00 | 78 | 1024.9 |
| 20260902074603 | 65 | 77 | 2.0 | 6.0 | 0.00 | 0.00 | 0.00 | 78 | 1024.9 |
| 20260902073603 | 65 | 77 | 2.0 | 6.0 | 0.00 | 0.00 | 0.00 | 78 | 1024.9 |
| 20260902073103 | 65 | 77 | 2.0 | 6.0 | 0.00 | 0.00 | 0.00 | 78 | 1025.0 |
| 20260902072603 | 65 | 77 | 2.0 | 6.0 | 0.00 | 0.00 | 0.00 | 78 | 1025.0 |
| 20260902071603 | 65 | 77 | 2.0 | 6.0 | 0.00 | 0.00 | 0.00 | 79 | 1025.1 |
| 20260902071102 | 65 | 77 | 2.0 | 6.0 | 0.00 | 0.00 | 0.00 | 78 | 1025.1 |
| 20260902070602 | 65 | 77 | 2.0 | 6.0 | 0.00 | 0.00 | 0.00 | 78 | 1025.1 |
| 20260902065603 | 65 | 77 | 2.0 | 6.0 | 0.00 | 0.00 | 0.00 | 78 | 1025.2 |
| 20260902065102 | 65 | 77 | 2.0 | 6.0 | 0.00 | 0.00 | 0.00 | 78 | 1025.2 |
| 20260902064103 | 65 | 77 | 2.0 | 6.0 | 0.00 | 0.00 | 0.00 | 78 | 1025.3 |
| 20260902063602 | 65 | 77 | 2.0 | 6.0 | 0.00 | 0.00 | 0.00 | 77 | 1025.3 |
| 20260902063103 | 65 | 77 | 2.0 | 6.0 | 0.00 | 0.00 | 0.00 | 78 | 1025.3 |
| 20260902062602 | 65 | 77 | 2.0 | 6.0 | 0.00 | 0.00 | 0.00 | 78 | 1025.3 |
| 20260902062103 | 65 | 77 | 2.0 | 6.0 | 0.00 | 0.00 | 0.00 | 78 | 1025.3 |
| 20260902061103 | 66 | 77 | 2.0 | 6.0 | 0.00 | 0.00 | 0.00 | 77 | 1025.3 |
| 20260902060603 | 66 | 77 | 2.0 | 6.0 | 0.00 | 0.00 | 0.00 | 77 | 1025.3 |
| 20260902055603 | 65 | 77 | 2.0 | 6.0 | 0.00 | 0.00 | 0.00 | 78 | 1025.3 |
| 20260902055102 | 65 | 77 | 2.0 | 6.0 | 0.00 | 0.00 | 0.00 | 78 | 1025.3 |
| 20260902054603 | 65 | 77 | 2.0 | 6.0 | 0.00 | 0.00 | 0.00 | 78 | 1025.3 |
| 20260902054103 | 65 | 77 | 2.0 | 6.0 | 0.00 | 0.00 | 0.00 | 78 | 1025.3 |
| 20260902053103 | 65 | 77 | 2.0 | 6.0 | 0.00 | 0.00 | 0.00 | 81 | 1025.3 |
| 20260902052602 | 65 | 77 | 2.0 | 6.0 | 0.00 | 0.00 | 0.00 | 81 | 1025.4 |
| 20260902052103 | 65 | 77 | 2.0 | 6.0 | 0.00 | 0.00 | 0.00 | 82 | 1025.4 |
| 20260902051603 | 65 | 77 | 2.0 | 6.0 | 0.00 | 0.00 | 0.00 | 82 | 1025.4 |
| 20260902051103 | 65 | 77 | 2.0 | 6.0 | 0.00 | 0.00 | 0.00 | 82 | 1025.4 |
| 20260902045603 | 65 | 77 | 2.0 | 6.0 | 0.00 | 0.00 | 0.00 | 82 | 1025.4 |
| 20260902044603 | 65 | 77 | 2.0 | 6.0 | 0.00 | 0.00 | 0.00 | 83 | 1025.4 |
| 20260902044103 | 65 | 77 | 2.0 | 6.0 | 0.00 | 0.00 | 0.00 | 83 | 1025.4 |
| 20260902043603 | 65 | 77 | 2.0 | 6.0 | 0.00 | 0.00 | 0.00 | 82 | 1025.4 |
| 20260902043104 | 65 | 77 | 2.0 | 6.0 | 0.00 | 0.00 | 0.00 | 82 | 1025.4 |
| 20260902042602 | 65 | 77 | 2.0 | 6.0 | 0.00 | 0.00 | 0.00 | 82 | 1025.3 |
| 20260902042102 | 65 | 77 | 2.0 | 6.0 | 0.00 | 0.00 | 0.00 | 82 | 1025.3 |
| 20260902041603 | 65 | 77 | 2.0 | 6.0 | 0.00 | 0.00 | 0.00 | 83 | 1025.3 |
| 20260902041103 | 65 | 77 | 2.0 | 6.0 | 0.00 | 0.00 | 0.00 | 83 | 1025.3 |
| 20260902035603 | 65 | 77 | 2.0 | 6.0 | 0.00 | 0.00 | 0.00 | 83 | 1025.2 |
| 20260902035103 | 65 | 77 | 2.0 | 6.0 | 0.00 | 0.00 | 0.00 | 83 | 1025.2 |
| 20260902034603 | 65 | 77 | 2.0 | 6.0 | 0.00 | 0.00 | 0.00 | 84 | 1025.2 |
| 20260902034102 | 65 | 77 | 2.0 | 6.0 | 0.00 | 0.00 | 0.00 | 83 | 1025.1 |
| 20260902033603 | 65 | 77 | 2.0 | 6.0 | 0.00 | 0.00 | 0.00 | 83 | 1025.1 |
| 20260902033103 | 65 | 77 | 2.0 | 6.0 | 0.00 | 0.00 | 0.00 | 84 | 1025.1 |
| 20260902032602 | 65 | 77 | 2.0 | 6.0 | 0.00 | 0.00 | 0.00 | 84 | 1025.1 |
| 20260902032103 | 65 | 77 | 2.0 | 6.0 | 0.00 | 0.00 | 0.00 | 83 | 1025.0 |
| 20260902031603 | 65 | 77 | 2.0 | 6.0 | 0.00 | 0.00 | 0.00 | 82 | 1024.9 |
| 20260902031103 | 65 | 77 | 2.0 | 6.0 | 0.00 | 0.00 | 0.00 | 82 | 1024.9 |
| 20260902030603 | 65 | 77 | 2.0 | 6.0 | 0.00 | 0.00 | 0.00 | 82 | 1024.9 |
| 20260902030103 | 65 | 77 | 2.0 | 6.0 | 0.00 | 0.00 | 0.00 | 82 | 1024.8 |
| 20260902025604 | 65 | 77 | 2.0 | 6.0 | 0.00 | 0.00 | 0.00 | 81 | 1024.7 |
| 20260902025103 | 65 | 77 | 2.0 | 6.0 | 0.00 | 0.00 | 0.00 | 81 | 1024.6 |
| 20260902024602 | 65 | 77 | 2.0 | 6.0 | 0.00 | 0.00 | 0.00 | 81 | 1024.6 |
| 20260902024103 | 66 | 77 | 2.0 | 6.0 | 0.00 | 0.00 | 0.00 | 81 | 1024.5 |
| 20260902023602 | 66 | 77 | 2.0 | 6.0 | 0.00 | 0.00 | 0.00 | 81 | 1024.5 |
| 20260902023102 | 66 | 77 | 2.0 | 6.0 | 0.00 | 0.00 | 0.00 | 80 | 1024.4 |
| 20260902022603 | 66 | 77 | 2.0 | 6.0 | 0.00 | 0.00 | 0.00 | 80 | 1024.3 |
| 20260902022103 | 66 | 77 | 2.0 | 6.0 | 0.00 | 0.00 | 0.00 | 80 | 1024.3 |
| 20260902021603 | 66 | 77 | 2.0 | 6.0 | 0.00 | 0.00 | 0.00 | 80 | 1024.3 |
| 20260902020603 | 66 | 77 | 2.0 | 6.0 | 0.00 | 0.00 | 0.00 | 80 | 1024.2 |
| 20260902015103 | 67 | 77 | 2.0 | 6.0 | 0.00 | 0.00 | 0.00 | 79 | 1024.0 |
| 20260902013603 | 67 | 77 | 2.0 | 6.0 | 0.00 | 0.00 | 0.00 | 79 | 1023.9 |
| 20260902012102 | 68 | 77 | 2.0 | 6.0 | 0.00 | 0.00 | 0.00 | 76 | 1023.7 |
| 20260902011603 | 68 | 77 | 2.0 | 6.0 | 0.00 | 0.00 | 0.00 | 76 | 1023.7 |
| 20260902011103 | 68 | 77 | 2.0 | 6.0 | 0.00 | 0.00 | 0.00 | 76 | 1023.7 |
| 20260902010602 | 68 | 77 | 2.0 | 6.0 | 0.00 | 0.00 | 0.00 | 76 | 1023.7 |
| 20260902005602 | 68 | 77 | 2.0 | 6.0 | 0.00 | 0.00 | 0.00 | 76 | 1023.6 |
| 20260902005103 | 68 | 77 | 2.0 | 6.0 | 0.00 | 0.00 | 0.00 | 76 | 1023.5 |
| 20260902004603 | 68 | 77 | 2.0 | 6.0 | 0.00 | 0.00 | 0.00 | 75 | 1023.5 |
| 20260902004103 | 68 | 77 | 2.0 | 6.0 | 0.00 | 0.00 | 0.00 | 75 | 1023.4 |
| 20260902003603 | 68 | 77 | 2.0 | 6.0 | 0.00 | 0.00 | 0.00 | 75 | 1023.4 |
| 20260902003103 | 68 | 77 | 2.0 | 6.0 | 0.00 | 0.00 | 0.00 | 75 | 1023.4 |
| 20260902001603 | 68 | 77 | 2.0 | 6.0 | 0.00 | 0.00 | 0.00 | 76 | 1023.4 |
| 20260902001102 | 68 | 77 | 2.0 | 6.0 | 0.00 | 0.00 | 0.00 | 77 | 1023.3 |
| 20260902000602 | 68 | 77 | 2.0 | 6.0 | 0.00 | 0.00 | 0.00 | 77 | 1023.3 |
| 20260901235602 | 69 | 77 | 2.0 | 6.0 | 0.00 | 0.00 | 0.00 | 75 | 1023.2 |
| 20260901234602 | 69 | 77 | 2.0 | 6.0 | 0.00 | 0.00 | 0.00 | 73 | 1023.2 |
| 20260901234102 | 69 | 77 | 2.0 | 6.0 | 0.00 | 0.00 | 0.00 | 72 | 1023.2 |
| 20260901233603 | 69 | 77 | 2.0 | 6.0 | 0.00 | 0.00 | 0.00 | 72 | 1023.2 |
| 20260901233103 | 69 | 77 | 2.0 | 6.0 | 0.00 | 0.00 | 0.00 | 71 | 1023.2 |